Regional Weather Roundup
Issued by NWS

Home | Current Version | Previous Version | Text Only | Print | Product List | Glossary On
Versions: 1 2 3 4 5 6 7 8 9 10 11 12 13 14 15 16 17 18 19 20 21 22 23 24 25 26 27 28 29 30 31 32 33 34 35 36 37 38 39 40 41 42 43 44 45 46 47 48 49 50
000
ASUS43 KTOP 291908
RWRKS

WEATHER ROUNDUP FOR KANSAS
NATIONAL WEATHER SERVICE GOODLAND KS
200 PM CDT SUN MAY 29 2016

NOTE:  "FAIR" INDICATES FEW OR NO CLOUDS BELOW 12,000 FEET WITH NO
SIGNIFICANT WEATHER AND/OR OBSTRUCTIONS TO VISIBILITY.

KSZ001>006-013>018-027>032-041>047-292000-
NORTHWEST KANSAS

CITY           SKY/WX    TMP DP  RH WIND       PRES   REMARKS
GOODLAND       SUNNY     80  55  42 S14G26    30.08F
HAYS           CLOUDY    82  61  47 S14       30.07F
HILL CITY      MOSUNNY   86  54  33 S9        30.07F
RUSSELL        MOSUNNY   83  61  47 S13G20    30.07F
$$

KSZ061>065-074>080-084>089-292000-
SOUTHWEST KANSAS

CITY           SKY/WX    TMP DP  RH WIND       PRES   REMARKS
DODGE CITY     MOSUNNY   77  60  55 S17G25    30.11F
ELKHART          N/A     76  55  48 SE17        N/A
GARDEN CITY    MOSUNNY   82  55  39 S21G29    30.09F
GREAT BEND     CLOUDY    81  63  54 SW15G23   30.08F
LIBERAL        CLOUDY    73  57  56 E3        30.12F
PRATT          CLOUDY    75  60  58 SW14      30.11F
$$

KSZ066>073-081>083-090>101-292000-
SOUTHEAST KANSAS

CITY           SKY/WX    TMP DP  RH WIND       PRES   REMARKS
CHANUTE        CLOUDY    82  65  56 SW9       30.12S
COFFEYVILLE    CLOUDY    82  69  64 W5        30.11F
HUTCHINSON     CLOUDY    84  63  49 SW14      30.09F
MEDICINE LODGE   N/A     77  55  46 W3        30.09F
NEWTON         CLOUDY    73  63  68 SW5         N/A
PARSONS        PTSUNNY   82  69  64 S3        30.13F
WICHITA INTL   CLOUDY    85  62  46 W6        30.10S
WICHITA JABRA  CLOUDY    70  58  65 NE14G25   30.11S THUNDER
WINFIELD       CLOUDY    82  68  62 SW8       30.11F
$$

KSZ007>012-019>026-033>040-048>060-102>105-292000-
NORTHEAST KANSAS

CITY           SKY/WX    TMP DP  RH WIND       PRES   REMARKS
CONCORDIA      SUNNY     83  60  45 W6        30.08F
EMPORIA        CLOUDY    84  62  47 S5        30.11F
LAWRENCE       SUNNY     85  56  37 W7        30.10S
MANHATTAN      SUNNY     87  61  41 SW7       30.08F
MARYSVILLE     SUNNY     82  61  47 S8        30.08F
OLATHE IND     SUNNY     84  57  39 SW8       30.12S
OLATHE EXE     SUNNY     82  58  43 VRB6      30.11S
SALINA         CLOUDY    88  55  32 VRB5      30.07F
TOPEKA BILLARD SUNNY     86  55  34 W7        30.09S
TOPEKA FORBES  SUNNY     87  55  33 MISG      30.10S
$$




USA.gov is the U.S. government's official web portal to all federal, state and local government web resources and services.